Weather observations for the past three days for
Nuevo Laredo International
Imperial (Metric)
Date Time (cdt) Wind (mph) Vis. (mi.) Weather Sky Cond. Temperature (ºF) Relative Humidity Wind Chill (°F) Heat Index (°F) Pressure Precipitation (in)
Air Dwpt 6 hour altimeter (in) sea level (mb) 1 hr 3 hr 6 hr
Max. Min.
03 19:40 E 9 10.00 Partly Cloudy SCT030 104 62.6 26% 107 29.74 0.0
03 18:42 E 15 10.00 A Few Clouds FEW030 105.8 62.6 25% 109 29.72 1004.6
03 17:40 E 12 10.00 A Few Clouds FEW030 105.8 62.6 25% 109 29.73 0.0
03 16:40 NE 10 10.00 A Few Clouds FEW030 105.8 64.4 26% 110 29.74 0.0
03 15:40 E 9 10.00 A Few Clouds FEW030 104 66.2 29% 109 29.76 1005.9
03 14:42 E 10 10.00 A Few Clouds FEW030 104 69.8 33% 112 29.8 0.0
03 13:40 Calm 10.00 Clear SKC 100.4 71.6 40% 110 29.83 0.0
03 12:40 SE 6 10.00 Clear SKC 98.6 75.2 47% 112 29.86 1009.4
03 11:40 SE 15 10.00 Clear SKC 95 75.2 53% 107 29.89 0.0
03 10:40 SE 7 10.00 Clear SKC 91.4 75.2 59% 103 29.89 0.0
03 09:40 SE 6 10.00 Clear SKC 87.8 75.2 66% 98 29.9 1010.4
03 08:40 E 14 10.00 Clear SKC 84.2 75.2 74% 92 29.89 0.0
03 07:01 SE 9 7.00 Clear SKC 82.4 75.2 79% 89 29.87 1009.5
02 20:41 E 9 10.00 Clear SKC 100.4 62.6 29% 102 29.8 0.0
02 19:40 SE 7 10.00 A Few Clouds FEW030 102.2 60.8 26% 103 29.79 0.0
02 18:40 SE 8 10.00 Partly Cloudy SCT030 105.8 60.8 23% 108 29.79 1006.7
02 17:40 Calm 10.00 Partly Cloudy SCT030 105.8 60.8 23% 108 29.8 0.0
02 16:41 S 6 10.00 Partly Cloudy SCT030 105.8 62.6 25% 109 29.81 0.0
02 15:40 E 7 10.00 Partly Cloudy SCT030 104 64.4 28% 108 29.84 1008.3
02 14:40 E 15 10.00 Partly Cloudy SCT030 102.2 66.2 31% 107 29.87 0.0
02 13:40 E 12 10.00 Partly Cloudy SCT030 100.4 71.6 40% 110 29.89 0.0
02 12:40 E 9 10.00 Clear SKC 98.6 73.4 44% 110 29.93 1011.7
02 11:40 SE 6 10.00 Clear SKC 95 75.2 53% 107 29.95 0.0
02 10:40 SE 8 10.00 Clear SKC 91.4 75.2 59% 103 29.96 0.0
02 09:41 SE 9 10.00 Clear SKC 87.8 75.2 66% 98 29.96 1012.6
02 08:40 SE 9 10.00 Clear SKC 84.2 75.2 74% 92 29.95 0.0
02 06:59 SE 8 10.00 Clear SKC 80.6 73.4 79% 85 29.93 1011.7
01 19:40 E 7 10.00 Clear SKC 102.2 59 24% 102 29.83 0.0
01 18:40 E 6 10.00 Clear SKC 104 59 23% 104 29.82 1007.9
01 17:40 SE 6 10.00 Clear SKC 104 59 23% 104 29.82 0.0
01 16:40 NE 7 10.00 Clear SKC 104 59 23% 104 29.83 0.0
01 15:40 SE 9 10.00 Clear SKC 104 60.8 24% 105 29.86 1009.4
01 14:40 Calm 10.00 Clear SKC 100.4 64.4 31% 104 29.89 0.0
01 13:40 E 12 10.00 Clear SKC 100.4 68 35% 106 29.92 0.0
01 12:40 SE 8 10.00 Clear SKC 96.8 69.8 42% 103 29.95 1012.4
01 11:40 SE 7 10.00 Clear SKC 91.4 73.4 56% 100 29.97 0.0
01 10:40 SE 6 10.00 Clear SKC 87.8 73.4 62% 96 29.97 0.0
01 09:40 E 10 7.00 Clear SKC 84.2 73.4 70% 91 29.97 1013.0
01 08:40 E 9 7.00 Clear SKC 80.6 73.4 79% 85 29.96 0.0
01 07:01 E 6 7.00 Clear SKC 80.6 73.4 79% 85 29.94 1012.1
Date Time (cdt) Wind (mph) Vis. (mi.) Weather Sky Cond. Air Dwpt Max. Min. Relative Humidity Wind Chill (°F) Heat Index (°F) altimeter (in) sea level (mb) 1 hr 3 hr 6 hr
6 hour
Temperature (ºF) Pressure Precipitation (in)